Pian Rosa, Italy

2:29 PM CET on February 22, 2017 (GMT +0100)
Pian Rosa

Weather History for LIMH - August, 2013

Change the Weather History Date:

Thursday, August 29, 2013

  Actual Average Record
Temperature  
Mean Temperature 34 °F -  
Max Temperature 39 °F 35 °F 47 °F (2015)
Min Temperature 29 °F 26 °F 15 °F (1997)
Degree Days  
Heating Degree Days 31    
Moisture  
Dew Point 28 °F    
Average Humidity 78    
Maximum Humidity 100    
Minimum Humidity 60    
Precipitation  
Precipitation 0.03 in - - ()
Sea Level Pressure  
Sea Level Pressure 30.40 in    
Wind  
Wind Speed 5 mph ()    
Max Wind Speed 9 mph    
Max Gust Speed -    
Visibility 3.4 miles    
Events Fog , Snow    
Averages and records for this station are not official NWS values.
T = Trace of Precipitation, MM = Missing Value Source: Averaged Metar Reports

Daily Weather History Graph

Daily Weather History Graph

Search for Another Location

Airport or City:

Trip Planner

Search our weather history database for the weather conditions in past years. The results will help you decide how hot, cold, wet, or windy it might be!

Date:

Astronomy

Aug. 29, 2013 Rise Set
Actual Time 6:46 AM CEST 8:13 PM CEST
Civil Twilight 6:15 AM CEST 8:44 PM CEST
Nautical Twilight 5:37 AM CEST 9:21 PM CEST
Astronomical Twilight 4:56 AM CEST 10:01 PM CEST
Moon 12:16 AM CEST (8/29) 3:38 PM CEST (8/29)
Length of Visible Light 14h 28m
Length of Day
13h 26m
Last Quarter, 40% of the Moon is Illuminated
Aug 29
Last Quarter
Sep 5
New
Sep 12
First Quarter
Sep 19
Full
Sep 27
Last Quarter

Hourly Weather History & Observations

Time (CEST) Temp. Windchill Dew Point Humidity Pressure Visibility Wind Dir Wind Speed Gust Speed Precip Events Conditions
12:55 AM 32.0 °F - 32.0 °F 100% 30.36 in 0.1 mi Variable 2.3 mph - N/A Fog Fog
1:55 AM 32.0 °F 24.2 °F 30.2 °F 93% 30.36 in 0.1 mi SW 9.2 mph - N/A Fog Light Freezing Fog
2:00 AM 31 °F - 31 °F 97%  in 0 mi SW 9.2 mph - - Fog Heavy Fog
2:55 AM 30.2 °F 22.6 °F 28.4 °F 93% 30.36 in 6.2 mi SW 8.1 mph - N/A   Partly Cloudy
3:55 AM 30.2 °F 22.6 °F 28.4 °F 93% 30.36 in 6.2 mi SW 8.1 mph - N/A   Scattered Clouds
4:55 AM 30.2 °F 23.4 °F 26.6 °F 86% 30.36 in 6.2 mi SW 6.9 mph - N/A   Scattered Clouds
5:55 AM 30.2 °F 23.4 °F 24.8 °F 80% 30.36 in 6.2 mi SSW 6.9 mph - N/A   Partly Cloudy
6:55 AM 30.2 °F 23.4 °F 24.8 °F 80% 30.36 in 6.2 mi WSW 6.9 mph - N/A   Partly Cloudy
7:55 AM 30.2 °F 22.6 °F 24.8 °F 80% 30.36 in 6.2 mi SW 8.1 mph - N/A   Scattered Clouds
8:00 AM 30 °F - 25 °F 74%  in 19 mi SW 8.1 mph - -   Partly Cloudy
8:55 AM 30.2 °F - 24.8 °F 80% 30.39 in 6.2 mi Variable 1.2 mph - N/A   Partly Cloudy
9:55 AM 32.0 °F - 26.6 °F 80% 30.39 in 6.2 mi Variable 2.3 mph - N/A   Partly Cloudy
10:55 AM 33.8 °F 27.7 °F 24.8 °F 70% 30.36 in 2.5 mi NE 6.9 mph - N/A   Mist
11:00 AM 33 °F - 25 °F 64%  in 2 mi NE 6.9 mph - -   Mist
11:55 AM 30.2 °F - 23.0 °F 75% 30.39 in 1.9 mi Variable 2.3 mph - N/A   Mist
12:55 PM 32.0 °F - 24.8 °F 75% 30.42 in 1.2 mi Variable 2.3 mph - N/A   Mist
1:55 PM 35.6 °F - 26.6 °F 70% 30.42 in 1.2 mi Variable 2.3 mph - N/A   Mist
2:00 PM 35 °F - 28 °F 65%  in 1 mi 2.3 mph - -   Mist
2:55 PM 35.6 °F - 26.6 °F 70% 30.42 in 2.5 mi Calm Calm - N/A   Scattered Clouds
3:55 PM 35.6 °F - 28.4 °F 75% 30.42 in 0.9 mi Calm Calm - N/A   Scattered Clouds
4:55 PM 37.4 °F - 28.4 °F 70% 30.42 in 1.9 mi Calm Calm - N/A   Scattered Clouds
5:00 PM 37 °F - 28 °F 60%  in 2 mi Calm Calm - -   Mist
5:55 PM 37.4 °F - 30.2 °F 75% 30.42 in 1.9 mi Variable 2.3 mph - N/A   Scattered Clouds
6:55 PM 37.4 °F 32.1 °F 28.4 °F 70% 30.42 in 1.9 mi NNE 6.9 mph - N/A   Scattered Clouds
7:55 PM 39.2 °F 34.2 °F 32.0 °F 75% 30.45 in 1.9 mi ENE 6.9 mph - N/A   Scattered Clouds
8:00 PM 38 °F - 31 °F 68%  in 2 mi ENE 6.9 mph - -   Mist
8:55 PM 33.8 °F 28.6 °F 28.4 °F 81% 30.45 in 2.5 mi ENE 5.8 mph - N/A   Scattered Clouds
9:55 PM 33.8 °F 29.6 °F 28.4 °F 81% 30.45 in 3.7 mi ENE 4.6 mph - N/A   Scattered Clouds
10:55 PM 33.8 °F 30.8 °F 28.4 °F 81% 30.45 in 2.5 mi Variable 3.5 mph - N/A   Scattered Clouds
11:00 PM 33 °F - 28 °F 74%  in 2 mi 3.5 mph - -   Mist
11:55 PM 33.8 °F - 28.4 °F 81% 30.48 in 0.1 mi Variable 2.3 mph - N/A Fog , Snow Light Snow